CW7986 Weather Reports


Display with metric or nautical units.
time (UTC)temp
F
wind
direction
speed
MPH
gust
MPH
rain 1hr
in
rain 24hr
in
rain mn
in
humidity
%
barometer
mb
20260510120024 76 131 0.0 3.0 0.00 0.00 0.00 89 1014.2
20260510115502 76 128 0.0 2.0 0.00 0.00 0.00 89 1014.2
20260510115002 76 93 0.0 1.0 0.00 0.00 0.00 89 1014.0
20260510114502 76 144 0.0 4.0 0.00 0.00 0.00 89 1013.9
20260510114002 76 140 1.0 4.0 0.00 0.00 0.00 89 1013.8
20260510113502 76 143 1.0 3.0 0.00 0.00 0.00 89 1013.8
20260510113002 76 151 1.0 3.0 0.00 0.00 0.00 89 1013.7
20260510112502 76 162 1.0 4.0 0.00 0.00 0.00 89 1013.6
20260510112002 76 159 3.0 5.0 0.00 0.00 0.00 89 1013.3
20260510111502 76 151 3.0 5.0 0.00 0.00 0.00 89 1013.2
20260510111002 76 146 3.0 5.0 0.00 0.00 0.00 89 1013.2
20260510110502 76 149 2.0 5.0 0.00 0.00 0.00 89 1013.1
20260510110003 76 157 2.0 5.0 0.00 0.00 0.00 89 1012.9
20260510105502 76 158 2.0 5.0 0.00 0.00 0.00 89 1012.8
20260510105003 76 152 2.0 5.0 0.00 0.00 0.00 89 1012.7
20260510104502 76 152 2.0 5.0 0.00 0.00 0.00 89 1012.7
20260510104002 76 153 2.0 5.0 0.00 0.00 0.00 89 1012.6
20260510103502 76 145 3.0 7.0 0.00 0.00 0.00 89 1012.4
20260510103002 76 137 3.0 7.0 0.00 0.00 0.00 89 1012.2
20260510102524 76 133 2.0 6.0 0.00 0.00 0.00 89 1012.2
20260510102003 76 132 2.0 6.0 0.00 0.00 0.00 89 1012.3
20260510101503 76 127 2.0 5.0 0.00 0.00 0.00 89 1012.3
20260510101023 76 126 2.0 5.0 0.00 0.00 0.00 89 1012.2
20260510100502 76 128 2.0 5.0 0.00 0.00 0.00 89 1012.4
20260510100023 76 125 1.0 4.0 0.00 0.00 0.00 89 1012.4
20260510095502 76 120 1.0 3.0 0.00 0.00 0.00 89 1012.4
20260510095002 77 122 1.0 3.0 0.00 0.00 0.00 89 1012.6
20260510094525 76 120 0.0 1.0 0.00 0.00 0.00 89 1012.6
20260510094004 77 123 0.0 2.0 0.00 0.00 0.00 89 1012.6
20260510093502 77 131 1.0 3.0 0.00 0.00 0.00 89 1012.6
20260510093003 77 134 1.0 3.0 0.00 0.00 0.00 89 1012.4
20260510092523 77 0 0.0 0.0 0.00 0.00 0.00 89 1012.5
20260510092002 77 0 0.0 0.0 0.00 0.00 0.00 89 1012.5
20260510091502 77 0 0.0 0.0 0.00 0.00 0.00 88 1012.6
20260510091002 77 115 0.0 1.0 0.00 0.00 0.00 88 1012.6
20260510090524 77 115 0.0 1.0 0.00 0.00 0.00 88 1012.6
20260510090023 77 115 0.0 1.0 0.00 0.00 0.00 88 1012.5
20260510085503 77 115 0.0 2.0 0.00 0.00 0.00 88 1012.4
20260510085002 77 115 1.0 3.0 0.00 0.00 0.00 88 1012.3
20260510084523 77 115 1.0 3.0 0.00 0.00 0.00 88 1012.3
20260510084002 77 115 1.0 2.0 0.00 0.00 0.00 88 1012.2
20260510083502 77 116 1.0 3.0 0.00 0.00 0.00 88 1012.2
20260510083002 77 122 1.0 4.0 0.00 0.00 0.00 88 1012.2
20260510082502 77 132 1.0 4.0 0.00 0.00 0.00 88 1012.2
20260510082002 77 137 1.0 3.0 0.00 0.00 0.00 88 1012.2
20260510081524 77 134 1.0 3.0 0.00 0.00 0.00 88 1012.3
20260510081002 77 134 1.0 4.0 0.00 0.00 0.00 88 1012.3
20260510080502 77 134 0.0 4.0 0.00 0.00 0.00 88 1012.3
20260510080003 77 0 0.0 0.0 0.00 0.00 0.00 88 1012.4
20260510075502 77 0 0.0 0.0 0.00 0.00 0.00 88 1012.3
20260510075002 77 0 0.0 0.0 0.00 0.00 0.00 88 1012.5
20260510074502 77 0 0.0 0.0 0.00 0.00 0.00 88 1012.6
20260510074002 77 0 0.0 0.0 0.00 0.00 0.00 88 1012.6
20260510073524 77 0 0.0 0.0 0.00 0.00 0.00 88 1012.6
20260510073002 77 0 0.0 0.0 0.00 0.00 0.00 88 1012.6
20260510072502 77 0 0.0 0.0 0.00 0.00 0.00 88 1012.7
20260510072002 77 0 0.0 0.0 0.00 0.00 0.00 88 1012.7
20260510071523 77 0 0.0 0.0 0.00 0.00 0.00 88 1012.7
20260510071002 77 0 0.0 0.0 0.00 0.00 0.00 88 1012.7
20260510070523 77 92 0.0 1.0 0.00 0.00 0.00 88 1012.7
20260510070002 77 92 0.0 1.0 0.00 0.00 0.00 88 1012.7
20260510065503 77 92 0.0 2.0 0.00 0.00 0.00 88 1012.6
20260510065003 78 92 0.0 2.0 0.00 0.00 0.00 88 1012.7
20260510064502 78 92 0.0 2.0 0.00 0.00 0.00 88 1012.7
20260510064024 78 92 0.0 2.0 0.00 0.00 0.00 88 1012.7
20260510063524 78 92 0.0 3.0 0.00 0.00 0.00 88 1012.7
20260510063002 78 92 0.0 3.0 0.00 0.00 0.00 88 1012.8
20260510062502 78 92 0.0 3.0 0.00 0.00 0.00 88 1012.9
20260510062002 78 92 0.0 2.0 0.00 0.00 0.00 88 1013.0
20260510061502 78 92 0.0 3.0 0.00 0.00 0.00 87 1013.0
20260510061003 78 92 0.0 3.0 0.00 0.00 0.00 87 1013.0
20260510060502 78 0 0.0 0.0 0.00 0.00 0.00 87 1013.1
20260510060002 78 0 0.0 0.0 0.00 0.00 0.00 87 1013.2
20260510055523 78 0 0.0 0.0 0.00 0.00 0.00 87 1013.2
20260510055023 78 0 0.0 0.0 0.00 0.00 0.00 87 1013.2
20260510054503 78 0 0.0 0.0 0.00 0.00 0.00 87 1013.2
20260510054002 78 0 0.0 0.0 0.00 0.00 0.00 87 1013.2
20260510053502 78 0 0.0 0.0 0.00 0.00 0.00 87 1013.2
20260510053003 78 0 0.0 0.0 0.00 0.00 0.00 87 1013.2
20260510052523 78 0 0.0 0.0 0.00 0.00 0.00 87 1013.3
20260510052002 78 0 0.0 0.0 0.00 0.00 0.00 87 1013.3
20260510051502 78 263 0.0 1.0 0.00 0.00 0.00 87 1013.3
20260510051023 78 263 0.0 1.0 0.00 0.00 0.00 87 1013.5
20260510050502 78 263 0.0 1.0 0.00 0.00 0.00 87 1013.5
20260510050002 79 0 0.0 0.0 0.00 0.00 0.00 87 1013.5
20260510045502 79 0 0.0 0.0 0.00 0.00 0.00 87 1013.5
20260510045003 79 263 0.0 1.0 0.00 0.00 0.00 87 1013.5
20260510044503 79 263 0.0 1.0 0.00 0.00 0.00 87 1013.5
20260510044002 79 263 0.0 1.0 0.00 0.00 0.00 87 1013.5
20260510043503 79 263 0.0 1.0 0.00 0.00 0.00 87 1013.6
20260510043002 79 263 0.0 2.0 0.00 0.00 0.00 87 1013.6
20260510042502 79 263 0.0 2.0 0.00 0.00 0.00 87 1013.7
20260510042002 79 263 0.0 2.0 0.00 0.00 0.00 87 1013.7
20260510041502 79 263 0.0 3.0 0.00 0.00 0.00 87 1013.6
20260510041023 79 270 1.0 3.0 0.00 0.00 0.00 87 1013.6
20260510040502 79 281 1.0 3.0 0.00 0.00 0.00 87 1013.7
20260510040024 79 286 1.0 3.0 0.00 0.00 0.00 87 1013.7
20260510035502 79 286 0.0 2.0 0.00 0.00 0.00 86 1013.6
20260510035023 79 286 0.0 2.0 0.00 0.00 0.00 86 1013.6
20260510034502 79 286 0.0 2.0 0.00 0.00 0.00 86 1013.6
20260510034002 79 286 0.0 4.0 0.00 0.00 0.00 86 1013.5
20260510033502 79 286 0.0 4.0 0.00 0.00 0.00 86 1013.5
20260510033024 79 286 0.0 2.0 0.00 0.00 0.00 86 1013.5
20260510032502 79 286 0.0 2.0 0.00 0.00 0.00 86 1013.4
20260510032002 79 286 0.0 1.0 0.00 0.00 0.00 86 1013.5
20260510031503 79 286 1.0 2.0 0.00 0.00 0.00 86 1013.4
20260510031007 79 286 1.0 2.0 0.00 0.00 0.00 86 1013.4
20260510030502 79 285 0.0 2.0 0.00 0.00 0.00 85 1013.3
20260510030002 79 290 0.0 2.0 0.00 0.00 0.00 85 1013.4
20260510025502 79 297 1.0 2.0 0.00 0.00 0.00 85 1013.4
20260510025002 79 285 1.0 2.0 0.00 0.00 0.00 85 1013.4
20260510024523 79 283 1.0 3.0 0.00 0.00 0.00 85 1013.3
20260510024003 79 284 1.0 3.0 0.00 0.00 0.00 85 1013.3
20260510023510 80 273 1.0 4.0 0.00 0.00 0.00 85 1013.3
20260510023023 80 268 1.0 4.0 0.00 0.00 0.00 85 1013.2
20260510022502 80 266 0.0 3.0 0.00 0.00 0.00 84 1013.1
20260510022002 80 266 0.0 1.0 0.00 0.00 0.00 84 1013.0
20260510021502 80 272 1.0 4.0 0.00 0.00 0.00 84 1013.0
20260510021002 80 274 1.0 4.0 0.00 0.00 0.00 84 1012.9
20260510020503 80 280 0.0 4.0 0.00 0.00 0.00 84 1012.9
20260510020003 80 283 0.0 3.0 0.00 0.00 0.00 83 1012.8
20260510015523 80 283 1.0 3.0 0.00 0.00 0.00 83 1012.8
20260510015002 80 283 1.0 3.0 0.00 0.00 0.00 83 1012.7
20260510014504 80 282 1.0 4.0 0.00 0.00 0.00 83 1012.7
20260510014002 80 282 1.0 4.0 0.00 0.00 0.00 83 1012.7
20260510013523 80 284 1.0 4.0 0.00 0.00 0.00 83 1012.7
20260510013002 80 284 1.0 4.0 0.00 0.00 0.00 83 1012.7
20260510012502 80 284 1.0 3.0 0.00 0.00 0.00 82 1012.6
20260510012003 80 284 1.0 3.0 0.00 0.00 0.00 82 1012.5
20260510011502 80 284 0.0 2.0 0.00 0.00 0.00 82 1012.3
20260510011002 80 278 1.0 4.0 0.00 0.00 0.00 82 1012.3
20260510010502 80 275 1.0 4.0 0.00 0.00 0.00 81 1012.2
20260510010003 80 268 0.0 4.0 0.00 0.00 0.00 81 1012.2
20260510005502 80 251 0.0 2.0 0.00 0.00 0.00 81 1012.0
20260510005003 80 268 1.0 6.0 0.00 0.00 0.00 81 1011.9
20260510004502 80 276 1.0 6.0 0.00 0.00 0.00 80 1011.9
20260510004003 80 279 1.0 3.0 0.00 0.00 0.00 80 1011.8
20260510003502 81 283 1.0 4.0 0.00 0.00 0.00 79 1011.7
20260510003023 81 281 2.0 5.0 0.00 0.00 0.00 79 1011.7
20260510002523 81 281 2.0 5.0 0.00 0.00 0.00 79 1011.7
20260510002003 81 278 1.0 4.0 0.00 0.00 0.00 78 1011.6
20260510001503 81 273 1.0 5.0 0.00 0.00 0.00 78 1011.5
20260510001002 81 273 1.0 5.0 0.00 0.00 0.00 78 1011.5
20260510000502 81 260 1.0 5.0 0.00 0.00 0.00 78 1011.5
20260510000002 82 247 1.0 3.0 0.00 0.00 0.00 77 1011.5
20260509235502 82 255 1.0 5.0 0.00 0.00 0.00 77 1011.6
20260509235002 82 267 2.0 5.0 0.00 0.00 0.00 77 1011.6
20260509234502 82 275 2.0 5.0 0.00 0.00 0.00 77 1011.6
20260509234023 82 270 2.0 5.0 0.00 0.00 0.00 76 1011.5
20260509233502 82 258 2.0 5.0 0.00 0.00 0.00 75 1011.3
20260509233002 83 229 1.0 4.0 0.00 0.00 0.00 74 1011.3
20260509232502 83 217 1.0 4.0 0.00 0.00 0.00 74 1011.2
20260509232025 83 225 1.0 4.0 0.00 0.00 0.00 74 1011.2
20260509231502 83 265 1.0 4.0 0.00 0.00 0.00 74 1011.1
20260509231023 83 270 1.0 4.0 0.00 0.00 0.00 73 1011.1
20260509230502 84 266 2.0 9.0 0.00 0.00 0.00 73 1011.1
20260509230002 84 257 3.0 9.0 0.00 0.00 0.00 72 1011.1
20260509225523 84 252 2.0 9.0 0.00 0.00 0.00 72 1011.1
20260509225002 85 216 2.0 8.0 0.00 0.00 0.00 72 1011.1
20260509224502 85 187 2.0 8.0 0.00 0.00 0.00 73 1011.1
20260509224002 85 237 2.0 9.0 0.00 0.00 0.00 72 1011.1
20260509223502 85 269 3.0 9.0 0.00 0.00 0.00 72 1011.1
20260509223002 85 270 2.0 8.0 0.00 0.00 0.00 72 1011.1
20260509222503 86 252 2.0 6.0 0.00 0.00 0.00 71 1011.0
20260509222002 86 217 2.0 8.0 0.00 0.00 0.00 71 1010.9
20260509221503 86 225 3.0 8.0 0.00 0.00 0.00 71 1010.8
20260509221002 87 249 2.0 7.0 0.00 0.00 0.00 70 1010.8
20260509220502 87 236 2.0 6.0 0.00 0.00 0.00 70 1010.7
20260509220002 87 221 2.0 6.0 0.00 0.00 0.00 70 1010.7
20260509215502 87 217 2.0 7.0 0.00 0.00 0.00 71 1010.7
20260509215023 87 235 2.0 7.0 0.00 0.00 0.00 71 1010.7
20260509214502 86 260 3.0 7.0 0.00 0.00 0.00 71 1010.7
20260509214002 87 252 3.0 7.0 0.00 0.00 0.00 70 1010.7
20260509213502 87 214 2.0 6.0 0.00 0.00 0.00 70 1010.7
20260509213002 87 235 3.0 9.0 0.00 0.00 0.00 71 1010.6
20260509212502 86 239 3.0 9.0 0.00 0.00 0.00 70 1010.6
20260509212002 87 244 3.0 9.0 0.00 0.00 0.00 71 1010.6
20260509211502 87 229 2.0 9.0 0.00 0.00 0.00 70 1010.6
20260509211003 87 217 2.0 6.0 0.00 0.00 0.00 69 1010.6
20260509210502 87 237 2.0 7.0 0.00 0.00 0.00 69 1010.7
20260509210003 87 230 2.0 7.0 0.00 0.00 0.00 69 1010.7
20260509205523 88 217 2.0 11.0 0.00 0.00 0.00 68 1010.8
20260509205023 88 186 3.0 11.0 0.00 0.00 0.00 70 1010.8
20260509204503 87 205 3.0 9.0 0.00 0.00 0.00 69 1010.9
20260509204024 87 235 3.0 9.0 0.00 0.00 0.00 69 1010.9
20260509203502 87 249 3.0 9.0 0.00 0.00 0.00 70 1011.0
20260509203023 88 261 4.0 10.0 0.00 0.00 0.00 68 1011.0
20260509202502 87 263 4.0 10.0 0.00 0.00 0.00 69 1011.0
20260509202002 87 260 3.0 9.0 0.00 0.00 0.00 69 1011.1
20260509201502 88 252 2.0 5.0 0.00 0.00 0.00 68 1011.1
20260509201002 88 244 3.0 11.0 0.00 0.00 0.00 69 1011.1
20260509200502 88 247 3.0 11.0 0.00 0.00 0.00 69 1011.2
20260509200023 88 232 2.0 11.0 0.00 0.00 0.00 68 1011.2
20260509195502 88 197 3.0 7.0 0.00 0.00 0.00 69 1011.2
20260509195002 88 198 2.0 9.0 0.00 0.00 0.00 68 1011.3
20260509194502 89 237 3.0 9.0 0.00 0.00 0.00 67 1011.3
20260509194002 89 248 3.0 9.0 0.00 0.00 0.00 67 1011.4
20260509193523 89 231 2.0 11.0 0.00 0.00 0.00 65 1011.4
20260509193002 90 230 2.0 11.0 0.00 0.00 0.00 66 1011.6
20260509192523 90 244 2.0 9.0 0.00 0.00 0.00 66 1011.6
20260509192002 88 213 3.0 9.0 0.00 0.00 0.00 67 1011.6
20260509191503 89 194 3.0 7.0 0.00 0.00 0.00 66 1011.7
20260509191003 89 196 3.0 10.0 0.00 0.00 0.00 66 1011.8
20260509190502 90 225 3.0 10.0 0.00 0.00 0.00 66 1011.9
20260509190002 88 220 3.0 12.0 0.00 0.00 0.00 67 1012.0
20260509185502 90 230 3.0 12.0 0.00 0.00 0.00 65 1012.0
20260509185023 89 252 3.0 8.0 0.00 0.00 0.00 67 1012.1
20260509184502 89 253 4.0 10.0 0.00 0.00 0.00 66 1012.1
20260509184002 89 220 3.0 9.0 0.00 0.00 0.00 66 1012.2
20260509183502 89 191 3.0 13.0 0.00 0.00 0.00 65 1012.2
20260509183002 89 196 3.0 13.0 0.00 0.00 0.00 64 1012.2
20260509182502 90 193 3.0 12.0 0.00 0.00 0.00 65 1012.2
20260509182002 89 197 4.0 12.0 0.00 0.00 0.00 67 1012.2
20260509181523 88 210 4.0 12.0 0.00 0.00 0.00 67 1012.3
20260509181002 88 203 4.0 13.0 0.00 0.00 0.00 66 1012.3
20260509180523 88 200 4.0 13.0 0.00 0.00 0.00 65 1012.3
20260509180002 89 192 4.0 15.0 0.00 0.00 0.00 66 1012.2
20260509175502 88 200 4.0 15.0 0.00 0.00 0.00 67 1012.2
20260509175002 89 217 4.0 12.0 0.00 0.00 0.00 65 1012.3
20260509174502 88 210 3.0 9.0 0.00 0.00 0.00 67 1012.3
20260509174002 88 217 3.0 12.0 0.00 0.00 0.00 66 1012.2
20260509173502 88 209 4.0 12.0 0.00 0.00 0.00 66 1012.2
20260509173003 89 197 5.0 14.0 0.00 0.00 0.00 64 1012.3
20260509172502 88 189 5.0 14.0 0.00 0.00 0.00 65 1012.3
20260509172002 89 192 4.0 12.0 0.00 0.00 0.00 63 1012.3
20260509171502 89 210 3.0 16.0 0.00 0.00 0.00 63 1012.3
20260509171002 89 198 4.0 16.0 0.00 0.00 0.00 64 1012.3
20260509170502 88 191 5.0 15.0 0.00 0.00 0.00 62 1012.5
20260509170002 89 189 6.0 15.0 0.00 0.00 0.00 63 1012.5
20260509165502 89 192 4.0 15.0 0.00 0.00 0.00 62 1012.6
20260509165002 89 195 4.0 14.0 0.00 0.00 0.00 62 1012.6
20260509164502 89 194 3.0 11.0 0.00 0.00 0.00 62 1012.7
20260509164002 90 219 3.0 11.0 0.00 0.00 0.00 61 1012.7
20260509163502 90 242 3.0 11.0 0.00 0.00 0.00 63 1012.7
20260509163023 89 249 2.0 6.0 0.00 0.00 0.00 64 1012.7
20260509162503 89 228 2.0 6.0 0.00 0.00 0.00 64 1012.7
20260509162002 89 212 2.0 8.0 0.00 0.00 0.00 67 1012.8
20260509161523 88 245 3.0 9.0 0.00 0.00 0.00 70 1012.9
20260509161003 87 259 3.0 9.0 0.00 0.00 0.00 71 1013.0
20260509160502 88 251 2.0 6.0 0.00 0.00 0.00 70 1013.0
20260509160002 88 255 2.0 6.0 0.00 0.00 0.00 69 1013.1
20260509155503 88 263 2.0 7.0 0.00 0.00 0.00 69 1013.0
20260509155002 87 261 2.0 7.0 0.00 0.00 0.00 69 1013.0
20260509154502 88 236 1.0 4.0 0.00 0.00 0.00 66 1013.1
20260509154002 89 230 1.0 3.0 0.00 0.00 0.00 67 1012.9
20260509153502 88 264 2.0 5.0 0.00 0.00 0.00 67 1012.9
20260509153002 86 270 2.0 5.0 0.00 0.00 0.00 70 1013.0
20260509152503 85 258 1.0 4.0 0.00 0.00 0.00 70 1013.1
20260509152002 85 244 1.0 4.0 0.00 0.00 0.00 69 1013.1
20260509151502 87 236 1.0 4.0 0.00 0.00 0.00 66 1013.2
20260509151002 87 261 1.0 6.0 0.00 0.00 0.00 69 1013.2
20260509150502 86 265 1.0 6.0 0.00 0.00 0.00 68 1013.2
20260509150002 86 271 2.0 5.0 0.00 0.00 0.00 68 1013.2
20260509145502 86 274 2.0 6.0 0.00 0.00 0.00 68 1013.2
20260509145003 87 251 2.0 6.0 0.00 0.00 0.00 65 1013.1
20260509144524 88 160 2.0 7.0 0.00 0.00 0.00 65 1013.0
20260509144003 87 159 2.0 7.0 0.00 0.00 0.00 62 1013.0
20260509143502 87 158 2.0 6.0 0.00 0.00 0.00 62 1012.9
20260509143002 88 147 3.0 6.0 0.00 0.00 0.00 62 1012.9
20260509142503 86 151 2.0 6.0 0.00 0.00 0.00 63 1013.0
20260509142023 87 171 2.0 5.0 0.00 0.00 0.00 65 1012.9
20260509141502 86 160 3.0 5.0 0.00 0.00 0.00 67 1012.8
20260509141023 85 148 3.0 5.0 0.00 0.00 0.00 67 1012.9
20260509140502 86 147 3.0 6.0 0.00 0.00 0.00 67 1012.8
20260509140003 85 144 2.0 6.0 0.00 0.00 0.00 69 1012.8
20260509135503 85 124 2.0 5.0 0.00 0.00 0.00 68 1012.7
20260509135002 83 127 2.0 5.0 0.00 0.00 0.00 70 1012.7
20260509134502 83 118 1.0 4.0 0.00 0.00 0.00 70 1012.8
20260509134002 84 121 2.0 5.0 0.00 0.00 0.00 72 1012.8
20260509133503 83 129 2.0 5.0 0.00 0.00 0.00 73 1012.8
20260509133002 82 112 2.0 4.0 0.00 0.00 0.00 75 1012.8
20260509132502 81 81 2.0 4.0 0.00 0.00 0.00 78 1012.7
20260509132023 80 70 2.0 5.0 0.00 0.00 0.00 80 1012.7
20260509131523 79 69 2.0 5.0 0.00 0.00 0.00 81 1012.7
20260509131002 79 66 2.0 4.0 0.00 0.00 0.00 83 1012.7
20260509130502 78 58 2.0 4.0 0.00 0.00 0.00 83 1012.7
20260509130003 78 65 2.0 5.0 0.00 0.00 0.00 84 1012.7
20260509125502 78 76 2.0 5.0 0.00 0.00 0.00 84 1012.7
20260509125003 78 81 2.0 5.0 0.00 0.00 0.00 85 1012.6
20260509124502 78 71 2.0 5.0 0.00 0.00 0.00 85 1012.5
20260509124023 78 65 3.0 5.0 0.00 0.00 0.00 86 1012.5
20260509123502 78 66 3.0 5.0 0.00 0.00 0.00 86 1012.5
20260509123007 77 70 2.0 5.0 0.00 0.00 0.00 88 1012.5
20260509122502 76 83 1.0 5.0 0.00 0.00 0.00 88 1012.3
20260509122003 76 75 1.0 5.0 0.00 0.00 0.00 89 1012.2
20260509121502 76 72 2.0 5.0 0.00 0.00 0.00 89 1012.2
20260509121002 75 73 2.0 5.0 0.00 0.00 0.00 89 1012.2
20260509120502 75 74 1.0 4.0 0.00 0.00 0.00 89 1012.2